User: anonymous   Login
Location: Unspecified
(0.0000°N, 0.0000°E)
Time: 19:44:21
(UTC+00:00)
Language:

NOSS 3-4 (A) - Orbit

View from above orbital plane
View from above orbital plane
View from above satellite
View from above satellite

Ground track
Ground track

The orbit data is extracted from the following two-line orbital elements,

1 31701U 07027A   21126.86653720 0.00000000  00000-0  00000-0 0    00
2 31701  63.3928  61.4168 0312400  19.5720 340.4280 13.40819377    09
Epoch (UTC): 06 May 2021 20:47:48
Eccentricity: 0.0312400
inclination: 63.3928°
perigee height: 872 km
apogee height: 1340 km
right ascension of ascending node: 61.4168°
argument of perigee: 19.5720°
revolutions per day: 13.40819377
mean anomaly at epoch: 340.4280°
orbit number at epoch: 0

The dashed part of the orbit path shows where the satellite is in the earth's shadow,  

DLR